Cloud_Cover
100 100 100 100 100 100 100 100 84 47 92 100 100 100 100 100 89 94 92 100 100 100 100 100 100 81 58 46 63 99 100 100 100 100 100 100 100 100 100 100 100 100 100
100 100 100 100 100 100 100 100 100 100 100 100 100 100 97 46 60 63 82 99 100 100 98 72 100 68 82 78 47 91 52 99 100 100 100 100 100 100 100 100 100 100 100
100 100 78 100 100 100 100 52 6 80 100 100 63 28 20 21 24 56 90 100 100 96 98 98 98 81 74 89 93 91 100 100 100 100 100 100 100 100 100 100 100 100 100
100 100 92 20 54 39 97 51 98 100 70 56 8 5 61 36 4 2 7 24 61 99 100 100 86 54 81 89 92 100 100 100 100 100 100 100 100 100 100 100 100 100 100
55 46 81 40 43 71 53 41 9 2 8 49 81 100 77 6 5 0 0 0 0 3 12 24 31 65 66 33 63 93 73 100 100 100 100 100 100 100 100 100 94 100 99
100 100 100 100 100 99 40 48 12 3 5 75 6 41 10 5 17 0 0 0 4 5 6 5 5 30 21 6 5 98 96 99 100 100 98 100 100 100 100 100 100 100 97
100 100 100 100 100 90 62 69 35 6 5 20 72 55 16 41 5 6 6 5 89 100 100 100 67 8 46 99 74 91 78 93 99 99 81 91 99 99 100 100 100 100 98
100 100 100 100 100 98 81 93 77 74 30 68 11 20 5 7 7 5 9 14 82 87 100 98 91 76 59 81 86 92 95 74 74 88 100 100 100 98 86 94 90 99 100
91 100 100 100 100 100 82 68 100 100 100 67 91 95 99 80 92 9 5 5 64 78 99 100 100 100 100 100 100 100 100 72 88 81 75 100 100 100 94 89 98 78 100
100 100 100 100 100 100 100 100 88 47 68 78 99 100 100 65 95 100 92 98 67 71 60 100 93 100 100 100 64 54 84 76 44 54 81 96 11 30 51 56 16 7 44
100 100 100 100 100 99 100 100 100 100 92 65 88 100 100 100 100 100 58 97 100 100 100 100 100 93 60 50 14 31 11 13 9 42 40 7 5 39 88 100 64 2 1
100 100 99 100 100 100 100 100 100 100 100 100 100 100 100 100 100 100 100 100 100 100 100 71 93 77 50 95 100 96 93 97 76 32 9 6 1 5 5 0 0 0 0
100 100 100 100 100 100 100 100 100 100 100 100 100 100 100 100 100 100 100 100 100 100 100 100 100 100 100 100 100 100 100 100 7 2 0 0 0 0 0 0 0 0 0
100 100 100 100 100 100 100 100 100 100 100 100 100 100 100 100 100 100 100 100 100 100 100 100 100 100 100 100 86 35 5 5 1 0 0 0 0 0 0 0 0 0 0
100 100 100 100 100 100 100 100 100 100 100 100 100 100 100 100 97 100 100 100 97 100 98 97 78 14 6 5 5 4 1 0 0 0 0 0 0 0 0 0 0 0 0
100 100 100 100 100 100 100 100 100 100 100 100 100 100 60 100 99 97 82 91 100 100 97 65 50 21 6 5 4 2 0 0 0 0 0 0 0 0 0 0 0 0 0
100 96 98 100 100 100 100 100 100 100 100 100 96 49 86 86 95 82 47 92 80 19 5 5 8 5 5 5 5 5 0 0 0 0 0 0 0 0 0 0 0 0 0
100 100 88 100 100 100 100 100 100 100 100 60 32 7 23 4 10 5 5 5 5 5 5 5 5 5 4 2 0 0 0 0 4 1 0 0 0 0 0 0 5 5 5
100 100 97 95 100 100 100 93 61 78 13 5 5 5 5 5 5 5 5 16 54 12 4 0 0 0 0 0 6 8 16 26 4 0 0 0 0 0 0 0 0 0 0
100 67 30 16 8 8 6 5 5 5 5 5 5 5 5 5 5 5 5 4 1 0 0 0 0 0 4 5 26 49 80 9 1 0 0 0 0 0 0 5 5 5 5
41 52 87 6 5 4 5 5 5 5 37 30 23 79 5 5 0 0 0 0 0 0 0 1 5 5 44 79 15 6 5 5 5 5 5 5 5 5 5 5 2 2 5
94 89 83 76 88 100 78 82 100 94 56 66 16 20 2 5 5 5 5 5 5 5 6 10 5 24 6 5 5 5 5 9 66 6 5 4 5 5 5 5 5 5 4
55 84 74 100 100 100 100 100 100 100 100 94 10 5 19 9 5 16 17 5 24 84 5 5 14 7 50 22 5 21 5 6 5 5 0 2 3 5 5 5 4 3 5
100 100 100 100 100 100 100 100 100 100 100 73 59 13 16 90 21 22 70 96 100 88 46 5 5 5 5 3 5 5 5 5 5 0 0 0 4 5 0 0 1 3 5
100 100 100 100 100 100 100 100 100 95 42 11 100 64 59 8 58 96 99 31 15 61 43 5 5 5 0 1 1 3 32 5 0 43 0 0 0 0 0 0 0 0 0
98 80 90 100 100 100 96 96 86 62 64 95 55 97 84 100 79 77 99 100 100 100 53 32 5 5 5 2 0 3 4 5 2 5 0 0 0 0 0 0 0 0 0